| time (UTC) | temp C | wind direction | speed KPH | gust KPH | rain 1hr cm | rain 24hr cm | rain mn cm | humidity % | barometer mb |
| 20260506201432 | 16 | 303 | 8.0 | 11.3 | 0.00 | 0.08 | 0.08 | 76 | 1015.8 |
| 20260506200929 | 15 | 35 | 6.4 | 12.9 | 0.00 | 0.08 | 0.08 | 77 | 1015.9 |
| 20260506200425 | 15 | 25 | 8.0 | 9.7 | 0.00 | 0.08 | 0.08 | 77 | 1016.1 |
| 20260506195922 | 15 | 25 | 6.4 | 11.3 | 0.00 | 0.08 | 0.08 | 78 | 1016.1 |
| 20260506195419 | 15 | 313 | 8.0 | 12.9 | 0.00 | 0.08 | 0.08 | 77 | 1016.2 |
| 20260506194915 | 15 | 25 | 4.8 | 16.1 | 0.00 | 0.08 | 0.08 | 79 | 1016.0 |
| 20260506194412 | 15 | 291 | 8.0 | 12.9 | 0.00 | 0.08 | 0.08 | 78 | 1016.1 |
| 20260506193909 | 15 | 14 | 8.0 | 11.3 | 0.00 | 0.08 | 0.08 | 80 | 1016.2 |
| 20260506193406 | 15 | 10 | 11.3 | 14.5 | 0.00 | 0.08 | 0.08 | 80 | 1016.3 |
| 20260506192903 | 14 | 22 | 11.3 | 12.9 | 0.00 | 0.08 | 0.08 | 81 | 1016.5 |
| 20260506192400 | 14 | 23 | 6.4 | 9.7 | 0.00 | 0.08 | 0.08 | 81 | 1016.6 |
| 20260506191857 | 13 | 357 | 6.4 | 16.1 | 0.00 | 0.08 | 0.08 | 81 | 1016.3 |
| 20260506191353 | 13 | 2 | 9.7 | 14.5 | 0.00 | 0.08 | 0.08 | 82 | 1016.4 |
| 20260506190850 | 13 | 18 | 8.0 | 14.5 | 0.00 | 0.08 | 0.08 | 82 | 1016.6 |
| 20260506190346 | 13 | 295 | 4.8 | 11.3 | 0.00 | 0.08 | 0.08 | 83 | 1016.7 |
| 20260506185843 | 13 | 325 | 4.8 | 16.1 | 0.00 | 0.08 | 0.08 | 83 | 1016.6 |
| 20260506185340 | 13 | 299 | 8.0 | 9.7 | 0.00 | 0.08 | 0.08 | 83 | 1016.9 |
| 20260506184837 | 13 | 316 | 6.4 | 8.0 | 0.00 | 0.08 | 0.08 | 84 | 1016.9 |
| 20260506184334 | 13 | 336 | 6.4 | 14.5 | 0.00 | 0.08 | 0.08 | 84 | 1017.0 |
| 20260506183832 | 13 | 359 | 4.8 | 8.0 | 0.00 | 0.08 | 0.08 | 84 | 1017.3 |
| 20260506183327 | 13 | 316 | 6.4 | 9.7 | 0.00 | 0.08 | 0.08 | 84 | 1017.3 |
| 20260506182824 | 13 | 349 | 6.4 | 8.0 | 0.00 | 0.08 | 0.08 | 84 | 1017.3 |
| 20260506182321 | 13 | 13 | 4.8 | 11.3 | 0.00 | 0.08 | 0.08 | 84 | 1017.0 |
| 20260506181819 | 13 | 23 | 6.4 | 8.0 | 0.00 | 0.08 | 0.08 | 85 | 1017.2 |
| 20260506181316 | 13 | 316 | 6.4 | 12.9 | 0.00 | 0.08 | 0.08 | 85 | 1017.3 |
| 20260506180813 | 13 | 25 | 3.2 | 8.0 | 0.00 | 0.08 | 0.08 | 85 | 1017.3 |
| 20260506180310 | 13 | 41 | 12.9 | 14.5 | 0.00 | 0.08 | 0.08 | 85 | 1017.5 |
| 20260506175806 | 13 | 258 | 6.4 | 11.3 | 0.00 | 0.08 | 0.08 | 85 | 1017.0 |
| 20260506175306 | 12 | 22 | 6.4 | 9.7 | 0.00 | 0.08 | 0.08 | 85 | 1017.1 |
| 20260506174800 | 12 | 5 | 11.3 | 14.5 | 0.00 | 0.08 | 0.08 | 85 | 1016.8 |
| 20260506174257 | 12 | 1 | 11.3 | 11.3 | 0.00 | 0.08 | 0.08 | 86 | 1016.4 |
| 20260506173755 | 12 | 307 | 12.9 | 19.3 | 0.00 | 0.08 | 0.08 | 86 | 1015.9 |
| 20260506173252 | 12 | 323 | 8.0 | 19.3 | 0.00 | 0.08 | 0.08 | 86 | 1015.6 |
| 20260506172748 | 12 | 319 | 6.4 | 16.1 | 0.00 | 0.08 | 0.08 | 86 | 1016.0 |
| 20260506172245 | 12 | 353 | 6.4 | 14.5 | 0.00 | 0.08 | 0.08 | 86 | 1015.4 |
| 20260506171743 | 13 | 1 | 6.4 | 14.5 | 0.00 | 0.08 | 0.08 | 86 | 1015.9 |
| 20260506171240 | 13 | 334 | 3.2 | 16.1 | 0.00 | 0.08 | 0.08 | 86 | 1015.6 |
| 20260506170738 | 12 | 344 | 8.0 | 17.7 | 0.00 | 0.08 | 0.08 | 86 | 1015.8 |
| 20260506170233 | 12 | 354 | 11.3 | 20.9 | 0.00 | 0.08 | 0.08 | 86 | 1015.6 |
| 20260506165732 | 12 | 359 | 9.7 | 16.1 | 0.00 | 0.08 | 0.08 | 86 | 1016.1 |
| 20260506165229 | 12 | 323 | 3.2 | 16.1 | 0.00 | 0.08 | 0.08 | 87 | 1016.4 |
| 20260506164726 | 12 | 14 | 8.0 | 12.9 | 0.00 | 0.08 | 0.08 | 87 | 1016.5 |
| 20260506164223 | 12 | 18 | 6.4 | 12.9 | 0.00 | 0.08 | 0.08 | 87 | 1016.2 |
| 20260506163719 | 12 | 359 | 6.4 | 11.3 | 0.00 | 0.08 | 0.08 | 88 | 1016.3 |
| 20260506163214 | 12 | 13 | 8.0 | 17.7 | 0.00 | 0.08 | 0.08 | 88 | 1016.5 |
| 20260506162711 | 12 | 3 | 8.0 | 11.3 | 0.00 | 0.08 | 0.08 | 88 | 1016.3 |
| 20260506162208 | 12 | 0 | 8.0 | 12.9 | 0.00 | 0.08 | 0.08 | 88 | 1016.2 |
| 20260506161705 | 12 | 19 | 4.8 | 6.4 | 0.00 | 0.08 | 0.08 | 88 | 1016.3 |
| 20260506161202 | 12 | 4 | 4.8 | 9.7 | 0.00 | 0.08 | 0.08 | 88 | 1016.3 |
| 20260506160700 | 12 | 43 | 4.8 | 9.7 | 0.00 | 0.08 | 0.08 | 88 | 1016.5 |
| 20260506160157 | 12 | 17 | 8.0 | 11.3 | 0.00 | 0.08 | 0.08 | 88 | 1016.0 |
| 20260506155655 | 12 | 14 | 9.7 | 20.9 | 0.00 | 0.08 | 0.08 | 88 | 1016.0 |
| 20260506155152 | 12 | 349 | 9.7 | 9.7 | 0.05 | 0.08 | 0.08 | 90 | 1015.9 |
| 20260506153254 | 12 | 339 | 4.8 | 12.9 | 0.05 | 0.08 | 0.08 | 91 | 1015.5 |
| 20260506152750 | 11 | 20 | 6.4 | 17.7 | 0.00 | 0.05 | 0.05 | 91 | 1015.4 |
| 20260506152248 | 11 | 24 | 6.4 | 11.3 | 0.00 | 0.05 | 0.05 | 91 | 1015.7 |
| 20260506151747 | 11 | 15 | 12.9 | 20.9 | 0.00 | 0.05 | 0.05 | 91 | 1014.9 |
| 20260506151243 | 11 | 39 | 12.9 | 14.5 | 0.05 | 0.05 | 0.05 | 91 | 1015.5 |
| 20260506150739 | 11 | 15 | 8.0 | 17.7 | 0.05 | 0.05 | 0.05 | 91 | 1015.5 |
| 20260506150237 | 11 | 333 | 1.6 | 8.0 | 0.00 | 0.05 | 0.05 | 90 | 1017.1 |
| 20260506145734 | 11 | 254 | 4.8 | 8.0 | 0.00 | 0.05 | 0.05 | 90 | 1016.9 |
| 20260506145230 | 11 | 341 | 11.3 | 11.3 | 0.00 | 0.05 | 0.05 | 90 | 1016.8 |
| 20260506144728 | 11 | 310 | 4.8 | 16.1 | 0.00 | 0.05 | 0.05 | 90 | 1017.0 |
| 20260506144225 | 11 | 334 | 14.5 | 14.5 | 0.00 | 0.05 | 0.05 | 89 | 1017.2 |
| 20260506143722 | 11 | 298 | 1.6 | 6.4 | 0.05 | 0.05 | 0.05 | 89 | 1017.5 |
| 20260506143220 | 11 | 357 | 4.8 | 11.3 | 0.05 | 0.05 | 0.05 | 88 | 1016.7 |
| 20260506142718 | 11 | 300 | 4.8 | 6.4 | 0.13 | 0.05 | 0.05 | 87 | 1016.9 |
| 20260506142216 | 11 | 344 | 17.7 | 19.3 | 0.13 | 0.05 | 0.05 | 86 | 1016.5 |
| 20260506141714 | 12 | 308 | 3.2 | 12.9 | 0.00 | 0.03 | 0.03 | 84 | 1017.4 |
| 20260506141212 | 12 | 275 | 8.0 | 9.7 | 0.00 | 0.03 | 0.03 | 83 | 1017.6 |
| 20260506140709 | 12 | 344 | 8.0 | 12.9 | 0.13 | 0.03 | 0.03 | 83 | 1017.7 |
| 20260506140206 | 12 | 287 | 8.0 | 14.5 | 0.13 | 0.03 | 0.03 | 83 | 1017.6 |
| 20260506135702 | 12 | 295 | 8.0 | 12.9 | 0.00 | 0.00 | 0.00 | 83 | 1016.3 |
| 20260506135159 | 12 | 307 | 8.0 | 14.5 | 0.00 | 0.00 | 0.00 | 82 | 1015.6 |
| 20260506134655 | 12 | 358 | 11.3 | 19.3 | 0.00 | 0.00 | 0.00 | 82 | 1014.8 |
| 20260506134151 | 12 | 348 | 8.0 | 20.9 | 0.00 | 0.00 | 0.00 | 81 | 1015.8 |
| 20260506133649 | 12 | 335 | 6.4 | 19.3 | 0.00 | 0.00 | 0.00 | 81 | 1015.6 |
| 20260506133146 | 12 | 325 | 8.0 | 16.1 | 0.00 | 0.00 | 0.00 | 81 | 1015.9 |
| 20260506132643 | 12 | 327 | 6.4 | 20.9 | 0.00 | 0.00 | 0.00 | 81 | 1016.1 |
| 20260506132140 | 12 | 316 | 6.4 | 14.5 | 0.00 | 0.00 | 0.00 | 81 | 1015.9 |
| 20260506131638 | 12 | 329 | 8.0 | 14.5 | 0.00 | 0.00 | 0.00 | 81 | 1015.7 |
| 20260506131133 | 13 | 292 | 4.8 | 14.5 | 0.00 | 0.00 | 0.00 | 81 | 1015.5 |
| 20260506130630 | 13 | 310 | 9.7 | 17.7 | 0.00 | 0.00 | 0.00 | 80 | 1015.4 |
| 20260506130128 | 13 | 339 | 9.7 | 11.3 | 0.00 | 0.00 | 0.00 | 80 | 1015.3 |
| 20260506125626 | 13 | 22 | 12.9 | 14.5 | 0.00 | 0.00 | 0.00 | 80 | 1014.8 |
| 20260506125123 | 13 | 358 | 8.0 | 17.7 | 0.00 | 0.00 | 0.00 | 80 | 1014.9 |
| 20260506124621 | 13 | 355 | 11.3 | 14.5 | 0.00 | 0.00 | 0.00 | 80 | 1014.6 |
| 20260506124119 | 13 | 273 | 8.0 | 14.5 | 0.00 | 0.00 | 0.00 | 79 | 1014.5 |
| 20260506123616 | 13 | 353 | 8.0 | 17.7 | 0.00 | 0.00 | 0.00 | 79 | 1014.3 |
| 20260506123115 | 13 | 293 | 6.4 | 14.5 | 0.00 | 0.00 | 0.00 | 79 | 1014.5 |
| 20260506122611 | 14 | 275 | 11.3 | 16.1 | 0.00 | 0.00 | 0.00 | 79 | 1014.4 |
| 20260506122109 | 14 | 352 | 11.3 | 14.5 | 0.00 | 0.00 | 0.00 | 78 | 1014.3 |
| 20260506121606 | 14 | 351 | 11.3 | 12.9 | 0.00 | 0.00 | 0.00 | 79 | 1014.2 |
| 20260506121102 | 14 | 309 | 11.3 | 12.9 | 0.00 | 0.00 | 0.00 | 79 | 1014.2 |
| 20260506120601 | 14 | 338 | 4.8 | 12.9 | 0.00 | 0.00 | 0.00 | 78 | 1013.9 |
| 20260506120057 | 14 | 22 | 12.9 | 17.7 | 0.00 | 0.00 | 0.00 | 78 | 1013.9 |
| 20260506115556 | 14 | 13 | 3.2 | 12.9 | 0.00 | 0.00 | 0.00 | 78 | 1014.0 |
| 20260506115054 | 14 | 326 | 4.8 | 20.9 | 0.00 | 0.00 | 0.00 | 78 | 1014.0 |
| 20260506114551 | 14 | 25 | 6.4 | 9.7 | 0.00 | 0.00 | 0.00 | 78 | 1013.9 |
| 20260506114049 | 14 | 350 | 12.9 | 19.3 | 0.00 | 0.00 | 0.00 | 78 | 1014.1 |
| 20260506113546 | 15 | 38 | 14.5 | 16.1 | 0.00 | 0.00 | 0.00 | 77 | 1013.9 |
| 20260506113043 | 15 | 305 | 6.4 | 11.3 | 0.00 | 0.00 | 0.00 | 78 | 1014.1 |
| 20260506112540 | 15 | 16 | 4.8 | 11.3 | 0.00 | 0.00 | 0.00 | 78 | 1013.8 |
| 20260506112037 | 15 | 358 | 8.0 | 16.1 | 0.00 | 0.00 | 0.00 | 78 | 1013.9 |
| 20260506111535 | 15 | 22 | 6.4 | 11.3 | 0.00 | 0.00 | 0.00 | 79 | 1013.4 |
| 20260506111032 | 15 | 315 | 9.7 | 11.3 | 0.00 | 0.00 | 0.00 | 79 | 1013.4 |
| 20260506110530 | 15 | 325 | 4.8 | 16.1 | 0.00 | 0.00 | 0.00 | 79 | 1013.4 |
| 20260506110027 | 15 | 349 | 6.4 | 14.5 | 0.00 | 0.00 | 0.00 | 79 | 1013.6 |
| 20260506105523 | 15 | 343 | 9.7 | 11.3 | 0.00 | 0.00 | 0.00 | 79 | 1013.2 |
| 20260506105020 | 15 | 352 | 6.4 | 11.3 | 0.00 | 0.00 | 0.00 | 80 | 1013.0 |
| 20260506104518 | 15 | 301 | 6.4 | 8.0 | 0.00 | 0.00 | 0.00 | 80 | 1013.1 |
| 20260506104016 | 15 | 2 | 6.4 | 12.9 | 0.00 | 0.00 | 0.00 | 79 | 1013.0 |
| 20260506103513 | 15 | 34 | 4.8 | 9.7 | 0.00 | 0.00 | 0.00 | 79 | 1012.8 |
| 20260506103010 | 15 | 357 | 4.8 | 9.7 | 0.00 | 0.00 | 0.00 | 79 | 1012.8 |
| 20260506102508 | 15 | 356 | 6.4 | 12.9 | 0.00 | 0.00 | 0.00 | 79 | 1012.6 |
| 20260506102005 | 15 | 321 | 6.4 | 9.7 | 0.00 | 0.00 | 0.00 | 78 | 1012.7 |
| 20260506101501 | 15 | 349 | 8.0 | 14.5 | 0.00 | 0.00 | 0.00 | 78 | 1012.5 |
| 20260506100959 | 15 | 322 | 8.0 | 11.3 | 0.00 | 0.00 | 0.00 | 79 | 1012.5 |
| 20260506100457 | 15 | 309 | 9.7 | 17.7 | 0.00 | 0.00 | 0.00 | 80 | 1012.5 |
| 20260506095955 | 15 | 336 | 9.7 | 14.5 | 0.00 | 0.00 | 0.00 | 81 | 1012.2 |
| 20260506095453 | 15 | 334 | 6.4 | 14.5 | 0.00 | 0.00 | 0.00 | 81 | 1012.3 |
| 20260506094949 | 15 | 12 | 3.2 | 6.4 | 0.00 | 0.00 | 0.00 | 81 | 1012.3 |
| 20260506094448 | 15 | 2 | 4.8 | 11.3 | 0.00 | 0.00 | 0.00 | 81 | 1012.1 |
| 20260506093945 | 15 | 355 | 3.2 | 8.0 | 0.00 | 0.00 | 0.00 | 81 | 1012.1 |
| 20260506093443 | 15 | 351 | 4.8 | 11.3 | 0.00 | 0.00 | 0.00 | 81 | 1011.9 |
| 20260506092940 | 15 | 23 | 9.7 | 14.5 | 0.00 | 0.00 | 0.00 | 81 | 1011.8 |
| 20260506092438 | 16 | 26 | 6.4 | 9.7 | 0.00 | 0.00 | 0.00 | 81 | 1011.7 |
| 20260506091934 | 16 | 17 | 6.4 | 16.1 | 0.00 | 0.00 | 0.00 | 81 | 1011.8 |
| 20260506091433 | 16 | 308 | 4.8 | 9.7 | 0.00 | 0.00 | 0.00 | 81 | 1011.8 |
| 20260506090929 | 16 | 358 | 4.8 | 8.0 | 0.00 | 0.00 | 0.00 | 81 | 1011.8 |
| 20260506090427 | 16 | 332 | 3.2 | 12.9 | 0.00 | 0.00 | 0.00 | 81 | 1012.0 |
| 20260506085923 | 16 | 326 | 3.2 | 8.0 | 0.00 | 0.00 | 0.00 | 81 | 1012.1 |
| 20260506085420 | 16 | 25 | 6.4 | 11.3 | 0.00 | 0.00 | 0.00 | 81 | 1011.8 |
| 20260506084917 | 16 | 19 | 8.0 | 16.1 | 0.00 | 0.00 | 0.00 | 81 | 1011.9 |
| 20260506084414 | 16 | 285 | 8.0 | 11.3 | 0.00 | 0.00 | 0.00 | 81 | 1012.0 |
| 20260506083910 | 16 | 357 | 6.4 | 14.5 | 0.00 | 0.00 | 0.00 | 80 | 1011.8 |
| 20260506083408 | 16 | 5 | 6.4 | 14.5 | 0.00 | 0.00 | 0.00 | 81 | 1011.5 |
| 20260506082905 | 16 | 300 | 4.8 | 8.0 | 0.00 | 0.00 | 0.00 | 81 | 1011.8 |
| 20260506082401 | 16 | 297 | 11.3 | 11.3 | 0.00 | 0.00 | 0.00 | 80 | 1011.7 |
| 20260506081857 | 16 | 9 | 4.8 | 8.0 | 0.00 | 0.00 | 0.00 | 81 | 1011.6 |
| 20260506081355 | 16 | 12 | 3.2 | 9.7 | 0.00 | 0.00 | 0.00 | 80 | 1011.5 |
| 20260506080853 | 16 | 11 | 9.7 | 12.9 | 0.00 | 0.00 | 0.00 | 80 | 1011.7 |
| 20260506080349 | 16 | 22 | 4.8 | 6.4 | 0.00 | 0.00 | 0.00 | 80 | 1011.9 |
| 20260506073333 | 17 | 16 | 4.8 | 6.4 | 0.00 | 0.00 | 0.00 | 80 | 1011.3 |
| 20260506072830 | 17 | 32 | 4.8 | 9.7 | 0.00 | 0.00 | 0.00 | 80 | 1011.4 |
| 20260506072328 | 17 | 29 | 8.0 | 9.7 | 0.00 | 0.00 | 0.00 | 80 | 1011.2 |
| 20260506071825 | 17 | 34 | 4.8 | 12.9 | 0.00 | 0.00 | 0.00 | 80 | 1011.4 |
| 20260506071323 | 17 | 16 | 1.6 | 19.3 | 0.00 | 0.00 | 0.00 | 79 | 1011.4 |
| 20260506070820 | 17 | 36 | 4.8 | 16.1 | 0.00 | 0.00 | 0.00 | 79 | 1011.5 |
| 20260506070317 | 17 | 49 | 9.7 | 14.5 | 0.00 | 0.00 | 0.00 | 79 | 1011.0 |
| 20260506062254 | 17 | 30 | 6.4 | 8.0 | 0.00 | 0.00 | 0.00 | 78 | 1011.2 |
| 20260506061750 | 17 | 65 | 4.8 | 6.4 | 0.00 | 0.00 | 0.00 | 78 | 1011.1 |
| 20260506061247 | 17 | 3 | 1.6 | 8.0 | 0.00 | 0.00 | 0.00 | 78 | 1011.3 |
| 20260506060745 | 17 | 344 | 4.8 | 9.7 | 0.00 | 0.00 | 0.00 | 77 | 1011.1 |
| 20260506060243 | 17 | 335 | 3.2 | 8.0 | 0.00 | 0.00 | 0.00 | 77 | 1011.2 |
| 20260506051214 | 18 | 357 | 8.0 | 12.9 | 0.00 | 0.00 | 0.00 | 75 | 1011.2 |
| 20260506050713 | 18 | 285 | 6.4 | 11.3 | 0.00 | 0.00 | 0.00 | 75 | 1011.3 |
| 20260506050210 | 19 | 17 | 4.8 | 9.7 | 0.00 | 0.00 | 0.00 | 75 | 1011.4 |
| 20260506044701 | 19 | 45 | 8.0 | 11.3 | 0.00 | 0.00 | 0.00 | 74 | 1011.1 |
| 20260506044157 | 19 | 17 | 4.8 | 17.7 | 0.00 | 0.00 | 0.00 | 74 | 1011.0 |
| 20260506043654 | 19 | 24 | 6.4 | 9.7 | 0.00 | 0.00 | 0.00 | 74 | 1011.0 |
| 20260506043152 | 19 | 50 | 6.4 | 9.7 | 0.00 | 0.00 | 0.00 | 73 | 1011.1 |
| 20260506042651 | 20 | 40 | 8.0 | 8.0 | 0.00 | 0.00 | 0.00 | 73 | 1010.9 |
| 20260506042149 | 20 | 345 | 3.2 | 11.3 | 0.00 | 0.00 | 0.00 | 73 | 1011.0 |
| 20260506041652 | 20 | 16 | 4.8 | 11.3 | 0.00 | 0.00 | 0.00 | 72 | 1011.0 |
| 20260506041143 | 20 | 311 | 11.3 | 16.1 | 0.00 | 0.00 | 0.00 | 72 | 1011.1 |
| 20260506040642 | 20 | 7 | 6.4 | 20.9 | 0.00 | 0.00 | 0.00 | 72 | 1011.1 |
| 20260506040138 | 20 | 353 | 11.3 | 14.5 | 0.00 | 0.00 | 0.00 | 71 | 1011.1 |
| 20260506035635 | 20 | 282 | 6.4 | 14.5 | 0.00 | 0.00 | 0.00 | 72 | 1011.2 |
| 20260506035131 | 20 | 0 | 9.7 | 19.3 | 0.00 | 0.00 | 0.00 | 71 | 1010.9 |
| 20260506034629 | 20 | 310 | 9.7 | 11.3 | 0.00 | 0.00 | 0.00 | 71 | 1010.9 |
| 20260506034126 | 20 | 307 | 8.0 | 16.1 | 0.00 | 0.00 | 0.00 | 71 | 1010.8 |
| 20260506033623 | 20 | 283 | 9.7 | 14.5 | 0.00 | 0.00 | 0.00 | 71 | 1010.6 |
| 20260506033120 | 20 | 339 | 6.4 | 19.3 | 0.00 | 0.00 | 0.00 | 70 | 1010.4 |
| 20260506032617 | 20 | 287 | 12.9 | 20.9 | 0.00 | 0.00 | 0.00 | 71 | 1010.5 |
| 20260506032114 | 21 | 11 | 4.8 | 16.1 | 0.00 | 0.00 | 0.00 | 72 | 1010.3 |
| 20260506031611 | 21 | 272 | 3.2 | 11.3 | 0.00 | 0.00 | 0.00 | 72 | 1009.9 |
| 20260506031108 | 21 | 310 | 9.7 | 12.9 | 0.00 | 0.00 | 0.00 | 72 | 1009.8 |
| 20260506030607 | 21 | 292 | 11.3 | 14.5 | 0.00 | 0.00 | 0.00 | 72 | 1009.7 |
| 20260506030103 | 21 | 304 | 6.4 | 14.5 | 0.00 | 0.00 | 0.00 | 71 | 1009.6 |
| 20260506025600 | 21 | 9 | 9.7 | 14.5 | 0.00 | 0.00 | 0.00 | 71 | 1009.4 |
| 20260506025056 | 21 | 54 | 6.4 | 17.7 | 0.00 | 0.00 | 0.00 | 70 | 1009.2 |
| 20260506024554 | 21 | 40 | 11.3 | 12.9 | 0.00 | 0.00 | 0.00 | 70 | 1009.2 |
| 20260506024050 | 22 | 358 | 9.7 | 17.7 | 0.00 | 0.00 | 0.00 | 69 | 1009.3 |
| 20260506023546 | 22 | 11 | 9.7 | 12.9 | 0.00 | 0.00 | 0.00 | 69 | 1009.2 |
| 20260506023044 | 22 | 24 | 14.5 | 16.1 | 0.00 | 0.00 | 0.00 | 68 | 1009.0 |
| 20260506022541 | 22 | 328 | 17.7 | 17.7 | 0.00 | 0.00 | 0.00 | 68 | 1008.9 |
| 20260506022038 | 22 | 359 | 6.4 | 17.7 | 0.00 | 0.00 | 0.00 | 67 | 1008.6 |
| 20260506021536 | 22 | 15 | 8.0 | 20.9 | 0.00 | 0.00 | 0.00 | 67 | 1008.5 |
| 20260506021033 | 22 | 349 | 9.7 | 17.7 | 0.00 | 0.00 | 0.00 | 68 | 1008.5 |
| 20260506020530 | 22 | 8 | 4.8 | 19.3 | 0.00 | 0.00 | 0.00 | 68 | 1008.7 |
| 20260506020027 | 22 | 343 | 6.4 | 11.3 | 0.00 | 0.00 | 0.00 | 68 | 1008.4 |
| 20260506015525 | 23 | 308 | 9.7 | 11.3 | 0.00 | 0.00 | 0.00 | 67 | 1008.1 |
| 20260506015022 | 23 | 5 | 8.0 | 20.9 | 0.00 | 0.00 | 0.00 | 67 | 1008.1 |
| 20260506014519 | 23 | 343 | 6.4 | 16.1 | 0.00 | 0.00 | 0.00 | 67 | 1007.9 |
| 20260506014015 | 23 | 351 | 8.0 | 11.3 | 0.00 | 0.00 | 0.00 | 66 | 1007.6 |
| 20260506013513 | 23 | 348 | 8.0 | 14.5 | 0.00 | 0.00 | 0.00 | 66 | 1007.5 |
| 20260506013010 | 23 | 357 | 8.0 | 19.3 | 0.00 | 0.00 | 0.00 | 66 | 1007.4 |
| 20260506012506 | 23 | 353 | 11.3 | 14.5 | 0.00 | 0.00 | 0.00 | 66 | 1007.1 |
| 20260506012003 | 24 | 332 | 6.4 | 14.5 | 0.00 | 0.00 | 0.00 | 66 | 1007.1 |
| 20260506011500 | 24 | 329 | 9.7 | 14.5 | 0.00 | 0.00 | 0.00 | 65 | 1007.1 |
| 20260506010956 | 25 | 356 | 12.9 | 14.5 | 0.00 | 0.00 | 0.00 | 64 | 1007.0 |
| 20260506010456 | 25 | 354 | 8.0 | 14.5 | 0.00 | 0.00 | 0.00 | 63 | 1006.9 |
| 20260506005951 | 25 | 349 | 9.7 | 19.3 | 0.00 | 0.00 | 0.00 | 63 | 1007.1 |
| 20260506005449 | 25 | 16 | 6.4 | 11.3 | 0.00 | 0.00 | 0.00 | 63 | 1007.0 |
| 20260506004944 | 25 | 17 | 6.4 | 9.7 | 0.00 | 0.00 | 0.00 | 63 | 1006.7 |
| 20260506004442 | 26 | 3 | 8.0 | 17.7 | 0.00 | 0.00 | 0.00 | 62 | 1006.8 |
| 20260506003938 | 26 | 5 | 11.3 | 19.3 | 0.00 | 0.00 | 0.00 | 62 | 1006.4 |
| 20260506003435 | 27 | 0 | 8.0 | 16.1 | 0.00 | 0.00 | 0.00 | 62 | 1006.4 |
| 20260506002931 | 27 | 323 | 11.3 | 17.7 | 0.00 | 0.00 | 0.00 | 61 | 1006.5 |
| 20260506002427 | 27 | 13 | 11.3 | 12.9 | 0.00 | 0.00 | 0.00 | 62 | 1006.3 |
| 20260506001923 | 28 | 4 | 11.3 | 16.1 | 0.00 | 0.00 | 0.00 | 60 | 1006.3 |
| 20260506001420 | 28 | 15 | 16.1 | 19.3 | 0.00 | 0.00 | 0.00 | 59 | 1006.2 |
| 20260506000918 | 29 | 324 | 6.4 | 19.3 | 0.00 | 0.00 | 0.00 | 56 | 1006.4 |
| 20260506000416 | 30 | 349 | 11.3 | 17.7 | 0.00 | 0.00 | 0.00 | 53 | 1006.3 |
| 20260505235912 | 31 | 297 | 6.4 | 17.7 | 0.00 | 0.00 | 0.00 | 49 | 1006.1 |
| 20260505235410 | 32 | 275 | 3.2 | 3.2 | 0.00 | 0.00 | 0.00 | 50 | 1005.9 |
| 20260505234906 | 32 | 190 | 0.0 | 4.8 | 0.00 | 0.00 | 0.00 | 49 | 1005.5 |
| 20260505234404 | 32 | 277 | 0.0 | 4.8 | 0.00 | 0.00 | 0.00 | 49 | 1005.5 |
| 20260505233900 | 33 | 154 | 8.0 | 8.0 | 0.00 | 0.00 | 0.00 | 48 | 1005.3 |
| 20260505233358 | 32 | 188 | 6.4 | 6.4 | 0.00 | 0.00 | 0.00 | 48 | 1005.3 |
| 20260505232855 | 33 | 160 | 3.2 | 3.2 | 0.00 | 0.00 | 0.00 | 49 | 1005.4 |
| 20260505232353 | 33 | 109 | 4.8 | 8.0 | 0.00 | 0.00 | 0.00 | 48 | 1005.2 |
| 20260505231850 | 32 | 222 | 3.2 | 8.0 | 0.00 | 0.00 | 0.00 | 49 | 1005.4 |
| 20260505231347 | 32 | 158 | 4.8 | 14.5 | 0.00 | 0.00 | 0.00 | 48 | 1005.2 |
| 20260505230845 | 33 | 206 | 4.8 | 6.4 | 0.00 | 0.00 | 0.00 | 48 | 1005.2 |
| 20260505230342 | 33 | 179 | 4.8 | 8.0 | 0.00 | 0.00 | 0.00 | 47 | 1005.2 |
| 20260505225839 | 33 | 194 | 4.8 | 9.7 | 0.00 | 0.00 | 0.00 | 46 | 1005.2 |
| 20260505225336 | 34 | 151 | 3.2 | 11.3 | 0.00 | 0.00 | 0.00 | 46 | 1005.3 |
| 20260505224831 | 35 | 183 | 3.2 | 8.0 | 0.00 | 0.00 | 0.00 | 44 | 1005.3 |
| 20260505224329 | 35 | 201 | 3.2 | 4.8 | 0.00 | 0.00 | 0.00 | 41 | 1005.2 |
| 20260505223826 | 35 | 295 | 0.0 | 4.8 | 0.00 | 0.00 | 0.00 | 40 | 1005.2 |
| 20260505223323 | 35 | 0 | 0.0 | 4.8 | 0.00 | 0.00 | 0.00 | 41 | 1005.1 |
| 20260505222818 | 34 | 176 | 3.2 | 6.4 | 0.00 | 0.00 | 0.00 | 44 | 1005.1 |
| 20260505222315 | 34 | 276 | 4.8 | 6.4 | 0.00 | 0.00 | 0.00 | 42 | 1005.3 |
| 20260505221813 | 34 | 249 | 1.6 | 8.0 | 0.00 | 0.00 | 0.00 | 42 | 1005.3 |
| 20260505221309 | 34 | 173 | 3.2 | 6.4 | 0.00 | 0.00 | 0.00 | 41 | 1005.2 |
| 20260505220806 | 34 | 164 | 9.7 | 11.3 | 0.00 | 0.00 | 0.00 | 39 | 1005.2 |
| 20260505220303 | 34 | 168 | 6.4 | 9.7 | 0.00 | 0.00 | 0.00 | 41 | 1005.0 |
| 20260505215801 | 34 | 255 | 4.8 | 8.0 | 0.00 | 0.00 | 0.00 | 44 | 1005.2 |
| 20260505215259 | 35 | 209 | 3.2 | 8.0 | 0.00 | 0.00 | 0.00 | 44 | 1005.3 |
| 20260505214756 | 34 | 153 | 3.2 | 11.3 | 0.00 | 0.00 | 0.00 | 42 | 1005.1 |
| 20260505214253 | 35 | 296 | 4.8 | 6.4 | 0.00 | 0.00 | 0.00 | 42 | 1005.3 |
| 20260505213751 | 35 | 247 | 3.2 | 8.0 | 0.00 | 0.00 | 0.00 | 43 | 1005.2 |
| 20260505213248 | 34 | 232 | 3.2 | 4.8 | 0.00 | 0.00 | 0.00 | 44 | 1005.3 |
| 20260505212743 | 34 | 208 | 4.8 | 8.0 | 0.00 | 0.00 | 0.00 | 42 | 1005.3 |
| 20260505212241 | 35 | 170 | 1.6 | 3.2 | 0.00 | 0.00 | 0.00 | 44 | 1005.3 |
| 20260505211738 | 33 | 168 | 1.6 | 8.0 | 0.00 | 0.00 | 0.00 | 45 | 1005.5 |
| 20260505211235 | 34 | 260 | 8.0 | 8.0 | 0.00 | 0.00 | 0.00 | 44 | 1005.2 |
| 20260505210732 | 34 | 308 | 3.2 | 8.0 | 0.00 | 0.00 | 0.00 | 45 | 1005.3 |
| 20260505210228 | 34 | 269 | 0.0 | 6.4 | 0.00 | 0.00 | 0.00 | 45 | 1005.7 |
| 20260505205726 | 34 | 272 | 4.8 | 8.0 | 0.00 | 0.00 | 0.00 | 46 | 1005.7 |
| 20260505205224 | 34 | 202 | 8.0 | 9.7 | 0.00 | 0.00 | 0.00 | 44 | 1005.6 |
| 20260505204720 | 34 | 214 | 1.6 | 8.0 | 0.00 | 0.00 | 0.00 | 43 | 1005.7 |
| 20260505204218 | 33 | 226 | 8.0 | 9.7 | 0.00 | 0.00 | 0.00 | 45 | 1006.0 |
| 20260505203715 | 35 | 172 | 8.0 | 9.7 | 0.00 | 0.00 | 0.00 | 45 | 1006.1 |
| 20260505203212 | 33 | 220 | 6.4 | 11.3 | 0.00 | 0.00 | 0.00 | 48 | 1005.9 |
| 20260505202708 | 33 | 241 | 3.2 | 11.3 | 0.00 | 0.00 | 0.00 | 46 | 1005.8 |
| 20260505202204 | 33 | 196 | 4.8 | 12.9 | 0.00 | 0.00 | 0.00 | 45 | 1006.0 |
| 20260505201700 | 33 | 226 | 3.2 | 8.0 | 0.00 | 0.00 | 0.00 | 47 | 1006.2 |